星链-1100 (STARLINK-1100 )

导读

STARLINK-1100(星链-1100)是美国SpaceX星链星座的一颗卫星,于北京时间2020年1月7日08时发射。它属于星链早期组网卫星,承担低轨互联网通信任务,依托Falcon 9火箭部署入轨,服务全球高速互联网接入,是星链大规模星座部署进程中的重要组成部分,推动了低轨卫星通信网络的建设。

基本信息
目录编号:
44943
目录名称:
STARLINK-1100
国际标识:
2020-001AF
轨道中心:
EARTH
卫星名称:
星链-1100
卫星全名:
星链-1100 (STARLINK-1100 )
卫星状态:
已陨落 最后检测时间 2024-08-17
发射日期:
2020-01-07 UTC
国别 :
美国 (US)
星等 :
--
轨道信息
数据来源 国际轨道数据
星历时间: 2024-08-17T01:32:24+0800
轨道信息已过期667天
半长轴: 6545.569km
偏心率: 0.0004082
轨道倾角: 53.026°
近地点辐角 344.214°
升交点赤经 289.210°
平近点角 122.292°
近地点: 164.762km
远地点: 170.106km
周期: 87.838分钟
每日圈数: 16.393877
详细信息
固有亮度:
5
最大亮度:
2.5
卫星平台:
Starlink V1.0
覆盖范围:
全球
运营商:
太空探索技术公司
运营商所在国:
美国
制造商(研发单位):
太空探索技术公司
制造商所在国:
美国
使用方式:
暂无
卫星简介
星链(Starlink)计划是由太空探索技术公司(SpaceX)提出的一个巨型低轨卫星互联网星座项目,计划在2019年至2024年间在太空搭建由约1.2万颗卫星组成的“星链”网络,其中1584颗将部署在地球上空550千米处的近地轨道,并从2020年开始工作。该卫星仍在工作。